Regional Weather Roundup
Issued by NWS

Home | Current Version | Previous Version | Graphics & Text | Print | Product List | Glossary Off
Versions: 1 2 3 4 5 6 7 8 9 10 11 12 13 14 15 16 17 18 19 20 21 22 23 24 25 26 27 28 29 30 31 32 33 34 35 36 37 38 39 40 41 42 43 44 45 46 47 48 49 50

000
ASUS43 KMKX 301100
RWRWI

WISCONSIN REGIONAL WEATHER ROUNDUP
NATIONAL WEATHER SERVICE MILWAUKEE/SULLIVAN WI
600 AM CDT TUE SEP 30 2014

NOTE: "FAIR" INDICATES FEW OR NO CLOUDS BELOW 12,000 FEET WITH NO
SIGNIFICANT WEATHER AND/OR OBSTRUCTIONS TO VISIBILITY.

WIZ001-002-006>008-014>016-023>028-301200-
NORTHWEST WISCONSIN

CITY           SKY/WX    TMP DP  RH WIND       PRES   REMARKS
SUPERIOR ARPT  CLOUDY    44  40  87 E5        30.16R
ASHLAND        CLOUDY    42  39  89 SE3       30.17S
HAYWARD        CLOUDY    40  37  89 E6        30.14S
SIREN          CLOUDY    42  39  89 E6        30.13S
CUMBERLAND     CLOUDY    37  36  93 E3        30.13R
RICE LAKE      CLOUDY    41  37  86 NE6       30.14S
CHETEK         CLOUDY    41  38  88 E6        30.13S
LADYSMITH      CLOUDY    40  37  89 NE6       30.15S
EAU CLAIRE     NOT AVBL
MENOMONIE      CLOUDY    42  38  84 E8        30.13S
NEW RICHMOND   CLOUDY    40  38  92 E7        30.11F
OSCEOLA        CLOUDY    41  40  96 E9        30.14F
$$

WIZ003>005-009-010-017-018-301200-
NORTH CENTRAL WISCONSIN

CITY           SKY/WX    TMP DP  RH WIND       PRES   REMARKS
MANITOWISH WTR CLOUDY    37  37 100 CALM      30.13S
ARBOR VITAE    CLOUDY    39  37  93 N3        30.13R
WOODRUFF       CLOUDY    39  37  93 N3        30.13R
RHINELANDER    CLOUDY    38  36  92 CALM      30.13R
EAGLE RIVER    CLOUDY    37  37  98 E3        30.12R
LAND O LAKES   CLOUDY    38  38  99 N7        30.13S FOG     WCI  32
PHILLIPS       CLOUDY    37  36  94 N7        30.12F WCI  32
TOMAHAWK       CLOUDY    37  35  90 CALM      30.13S
MEDFORD        CLOUDY    37  35  91 E3        30.12S
MERRILL        CLOUDY    39  38  95 CALM      30.12S
$$

WIZ029-030-035-036-043>047-301200-
CENTRAL WISCONSIN

CITY           SKY/WX    TMP DP  RH WIND       PRES   REMARKS
WAUSAU         CLOUDY    40  36  86 VRB3      30.11F
MOSINEE        CLOUDY    39  39 100 NE9       30.12F WCI  33
MARSHFIELD     CLOUDY    40  36  86 E7        30.11F
STEVENS POINT  CLOUDY    38  36  90 N6        30.13S WCI  34
WAUPACA        CLOUDY    43  39  86 N6        30.13S
WAUTOMA        NOT AVBL
WISC RAPIDS    CLOUDY    41  36  82 NE6       30.13S
CAMP DOUGLAS   NOT AVBL
$$

WIZ011>013-019>022-031-037>040-048>050-301200-
NORTHEAST WISCONSIN

CITY           SKY/WX    TMP DP  RH WIND       PRES   REMARKS
ANTIGO         CLOUDY    38  37  94 N5        30.11S WCI  35
SHAWANO        CLOUDY    45  39  79 N6        30.13S
OCONTO         CLOUDY    42  41  94 NE7       30.11S
STURGEON BAY   NOT AVBL
GREEN BAY      CLOUDY    43  39  86 N9        30.12R
MANITOWOC      NOT AVBL
APPLETON       CLOUDY    43  39  87 N9        30.12R
CLINTONVILLE   CLOUDY    43  36  75 N7        30.13R
OSHKOSH        CLOUDY    43  39  86 N9        30.11S
$$

WIZ032>034-041-042-053>061-301200-
SOUTHWEST WISCONSIN

CITY           SKY/WX    TMP DP  RH WIND       PRES   REMARKS
LA CROSSE      CLOUDY    48  41  76 E7        30.10S
SPARTA         CLOUDY    44  40  88 E6        30.12S
VIROQUA        CLOUDY    44  44 100 E7        30.08F
BOSCOBEL       CLOUDY    48  44  86 E8        30.09S
PRAIRIE DU CHI CLOUDY    50  44  80 NE5       30.07S
PLATTEVILLE    CLOUDY    47  45  91 E9        30.07F
$$

WIZ056-057-062-063-064-067-068-301200-
SOUTH CENTRAL WISCONSIN

CITY           SKY/WX    TMP DP  RH WIND       PRES   REMARKS
REEDSBURG      CLOUDY    43  40  88 E6        30.10S
BARABOO/DELLS  CLOUDY    42  38  86 NE6       30.10S
LONE ROCK      NOT AVBL
MINERAL POINT  CLOUDY    46  43  87 E8        30.07F
MADISON        CLOUDY    45  40  82 NE13      30.10R
MIDDLETON      CLOUDY    46  41  85 NE9       30.10R
WATERTOWN      CLOUDY    43  41  93 N8        30.09S
MONROE         CLOUDY    45  43  93 NE9       30.07S
JANESVILLE     CLOUDY    46  41  81 N7        30.07S
$$

WIZ051-052-058>065-066-070>072-301200-
SOUTHEAST WISCONSIN

CITY           SKY/WX    TMP DP  RH WIND       PRES   REMARKS
MILWAUKEE      CLOUDY    46  39  76 NW10      30.07S
WAUKESHA       CLOUDY    41  37  87 N7        30.10S
MILWAUKEE/TIMM CLOUDY    43  37  81 N10       30.09S
RACINE         CLOUDY    45  42  89 NW9       30.08S FOG
BURLINGTON     CLOUDY    43  38  84 N8        30.08S
KENOSHA        CLOUDY    45  43  93 N10       30.07S
FOND DU LAC    CLOUDY    45  39  79 NE13      30.10S
SHEBOYGAN      CLOUDY    44  39  82 N8        30.09S
WEST BEND      CLOUDY    43  36  75 N6        30.09R
JUNEAU         CLOUDY    42  39  88 NE7       30.10F
$$

LSZ147-162-301200-
LAKE SUPERIOR

STATION/POSITION TIME  TEMP    WIND        PRES    WAVE
                       AIR SEA DIR/SP/G            HT/PER
                 (UTC) (F)     (DEG/KT/KT) (MB)    (FT/S)
W MID LAKE BUOY  0950   44 49   80/ 12/ 14 1021.9S   3/ 6
DEVILS ISLAND    1000   45      80/ 13/ 14 1022.3R
SAXON HARBOR     1000   44      80/  4/  8 1021.7R
$$

LMZ867-665-643>646-301200-
LAKE MICHIGAN

STATION/POSITION TIME  TEMP    WIND        PRES    WAVE
                       AIR SEA DIR/SP/G            HT/PER
                 (UTC) (F)     (DEG/KT/KT) (MB)    (FT/S)
CHAMBERS ISLAND  1000   45     330/ 18/ 22 1019.0S
S GREEN BAY BUOY 1000   46                 1020.1R
N MID LAKE BUOY  0950   46 58  360/ 19/ 23 1017.9R   4/ 5
NORTHPORT PIER   1000   46     360/ 17/ 20 1018.6S
KEWAUNEE LAKESHO 1000   45     350/  7/ 11 1017.7R
SHEBOYGAN LAKESH 1000   45 54  330/ 14/ 16 1019.3R
PORT WASHINGTON  1040          340/  5/ 10 1019.3S
ATWATER BUOY     1000   48     340/ 16/ 19 1019.2F
MILWAUKEE LAKESH 1000          340/  9/ 13   N/A
S MID LAKE BUOY  1050   51 61  350/ 16/ 21 1016.9R   7/ 8
KENOSHA   LAKESH 1000          320/ 12/ 16 1017.6F
$$

TC  - TEMPERATURE IN CELSIUS
VSB - VISIBILITY IN STATUTE MILES
WCI - WIND CHILL INDEX
HX  - HEAT INDEX



USA.gov is the U.S. government's official web portal to all federal, state and local government web resources and services.